Hourly Data Report for October 06, 2013

All times are specified in Local Standard Time (LST). Add 1 hour to adjust for Daylight Saving Time where and when it is observed.

RANKIN INLET A
NUNAVUT

62°48'38.000" N
92°06'53.000" W
32.30 m
2303405
71083
YRT

Download Data

Hourly Data (October 2013)
Hourly Data Report for October 6, 2013
Temp Definition
°C
Dew Point Temp Definition
°C
Rel Hum Definition
%
Wind Dir Definition
10's deg

Wind Spd Definition
km/h
Visibility Definition
km
Stn Press Definition
kPa
Hmdx Definition


Wind Chill Definition


Weather Definition


TIME
00:00 Legend Double Dagger 0.9 -0.9 88 15 39 19.3 101.02     Snow Showers
01:00 Legend Double Dagger 1.1 -0.7 88 15 40 12.9 100.94     Snow Showers
02:00 Legend Double Dagger 1.4 -0.9 85 15 42 8.1 100.86     Snow Showers
03:00 Legend Double Dagger 1.4 -0.7 86 15 43 16.1 100.78     Snow Showers
04:00 Legend Double Dagger 1.7 -0.2 87 15 42 24.1 100.73     Snow Showers
05:00 Legend Double Dagger 1.7 -0.1 88 15 44 16.1 100.68     Snow Showers
06:00 Legend Double Dagger 2.1 -0.3 84 15 41 16.1 100.65     Snow Showers
07:00 Legend Double Dagger 2.2 -0.6 82 16 41 19.3 100.61     Snow Showers
08:00 Legend Double Dagger 1.9 -0.7 83 16 41 24.1 100.57     Rain Showers
09:00 Legend Double Dagger 2.1 -1.0 80 15 41 24.1 100.56     Rain Showers
10:00 Legend Double Dagger 2.1 -0.8 81 14 35 24.1 100.54     Rain Showers
11:00 Legend Double Dagger 2.2 -1.1 79 14 38 24.1 100.52     Rain Showers
12:00 Legend Double Dagger 2.5 -1.3 76 14 36 24.1 100.52     Cloudy
13:00 Legend Double Dagger 2.3 -1.9 74 14 35 24.1 100.49     LegendNANA
14:00 Legend Double Dagger 2.1 -1.3 78 14 29 24.1 100.47     LegendNANA
15:00 Legend Double Dagger 2.0 -1.4 78 14 36 24.1 100.48     Cloudy
16:00 Legend Double Dagger 1.9 -2.1 75 14 31 24.1 100.47     LegendNANA
17:00 Legend Double Dagger 1.9 -1.9 76 13 33 24.1 100.46     LegendNANA
18:00 Legend Double Dagger 1.7 -1.4 80 13 28 24.1 100.48     Cloudy
19:00 Legend Double Dagger 1.8 -1.6 78 13 29 24.1 100.48     Snow Showers
20:00 Legend Double Dagger 1.8 -0.8 83 12 30 16.1 100.46     Snow Showers
21:00 Legend Double Dagger 1.6 -1.0 83 13 25 24.1 100.45     Snow Showers
22:00 Legend Double Dagger 1.6 -0.8 84 11 21 24.1 100.41     Snow Showers
23:00 Legend Double Dagger 1.4 -0.9 85 11 29 16.1 100.40     Snow Showers

Notes on Data Quality.

Legend

  • E = Estimated
  • M = Missing
  • NA = Not Available
  • ‡ = Partner data that is not subject to review by the National Climate Archives
Date modified: